| time (UTC) | temp F | wind direction | speed MPH | gust MPH | rain 1hr in | rain 24hr in | rain mn in | humidity % | barometer mb |
| 20260906065309 | 74 | 142 | 2.0 | 2.0 | 0.00 | 0.00 | 0.00 | 89 | 1014.7 |
| 20260906064805 | 74 | 136 | 0.0 | 0.0 | 0.00 | 0.00 | 0.00 | 89 | 1014.5 |
| 20260906064301 | 74 | 153 | 2.0 | 4.0 | 0.00 | 0.00 | 0.00 | 89 | 1014.7 |
| 20260906063755 | 74 | 111 | 0.0 | 1.0 | 0.00 | 0.00 | 0.00 | 89 | 1014.7 |
| 20260906063251 | 74 | 140 | 1.0 | 1.0 | 0.00 | 0.00 | 0.00 | 89 | 1014.8 |
| 20260906062745 | 74 | 105 | 1.0 | 2.0 | 0.00 | 0.00 | 0.00 | 89 | 1014.7 |
| 20260906062245 | 74 | 93 | 1.0 | 1.0 | 0.00 | 0.00 | 0.00 | 89 | 1014.7 |
| 20260906061740 | 74 | 111 | 3.0 | 4.0 | 0.00 | 0.00 | 0.00 | 89 | 1014.9 |
| 20260906061237 | 74 | 165 | 1.0 | 1.0 | 0.00 | 0.00 | 0.00 | 89 | 1014.7 |
| 20260906060732 | 74 | 143 | 1.0 | 1.0 | 0.00 | 0.00 | 0.00 | 89 | 1014.7 |
| 20260906060230 | 75 | 126 | 0.0 | 0.0 | 0.00 | 0.00 | 0.00 | 89 | 1014.7 |
| 20260906055725 | 75 | 134 | 0.0 | 1.0 | 0.00 | 0.00 | 0.00 | 89 | 1014.7 |
| 20260906055220 | 75 | 153 | 0.0 | 0.0 | 0.00 | 0.00 | 0.00 | 89 | 1014.7 |
| 20260906054716 | 75 | 137 | 1.0 | 2.0 | 0.00 | 0.00 | 0.00 | 89 | 1014.4 |
| 20260906054216 | 75 | 156 | 1.0 | 2.0 | 0.00 | 0.00 | 0.00 | 89 | 1014.5 |
| 20260906053712 | 75 | 154 | 0.0 | 0.0 | 0.00 | 0.00 | 0.00 | 88 | 1014.6 |
| 20260906053207 | 75 | 141 | 0.0 | 1.0 | 0.00 | 0.00 | 0.00 | 88 | 1014.8 |
| 20260906052702 | 75 | 91 | 1.0 | 2.0 | 0.00 | 0.00 | 0.00 | 88 | 1014.7 |
| 20260906052159 | 75 | 65 | 2.0 | 2.0 | 0.00 | 0.00 | 0.00 | 88 | 1014.6 |
| 20260906051655 | 75 | 36 | 2.0 | 4.0 | 0.00 | 0.00 | 0.00 | 88 | 1014.5 |
| 20260906051154 | 75 | 136 | 1.0 | 3.0 | 0.00 | 0.00 | 0.00 | 88 | 1014.5 |
| 20260906050651 | 75 | 22 | 3.0 | 7.0 | 0.00 | 0.00 | 0.00 | 88 | 1014.3 |
| 20260906050145 | 75 | 94 | 2.0 | 2.0 | 0.00 | 0.00 | 0.00 | 88 | 1014.4 |
| 20260906045644 | 76 | 140 | 0.0 | 0.0 | 0.00 | 0.00 | 0.00 | 87 | 1014.3 |
| 20260906045139 | 76 | 162 | 2.0 | 3.0 | 0.00 | 0.00 | 0.00 | 87 | 1014.4 |
| 20260906044635 | 76 | 134 | 0.0 | 0.0 | 0.00 | 0.00 | 0.00 | 87 | 1014.3 |
| 20260906044130 | 76 | 201 | 2.0 | 2.0 | 0.00 | 0.00 | 0.00 | 87 | 1014.4 |
| 20260906043627 | 76 | 143 | 0.0 | 1.0 | 0.00 | 0.00 | 0.00 | 87 | 1014.2 |
| 20260906043121 | 76 | 164 | 1.0 | 2.0 | 0.00 | 0.00 | 0.00 | 87 | 1014.2 |
| 20260906042621 | 76 | 128 | 0.0 | 1.0 | 0.00 | 0.00 | 0.00 | 87 | 1014.2 |
| 20260906042116 | 77 | 48 | 1.0 | 2.0 | 0.00 | 0.00 | 0.00 | 86 | 1014.0 |
| 20260906041612 | 77 | 133 | 0.0 | 0.0 | 0.00 | 0.00 | 0.00 | 86 | 1014.3 |
| 20260906041111 | 77 | 348 | 3.0 | 3.0 | 0.00 | 0.00 | 0.00 | 86 | 1014.3 |
| 20260906040607 | 77 | 117 | 3.0 | 4.0 | 0.00 | 0.00 | 0.00 | 86 | 1014.2 |
| 20260906035557 | 77 | 158 | 0.0 | 0.0 | 0.00 | 0.00 | 0.00 | 86 | 1014.1 |
| 20260906035054 | 77 | 160 | 1.0 | 1.0 | 0.00 | 0.00 | 0.00 | 85 | 1014.0 |
| 20260906034553 | 77 | 147 | 1.0 | 1.0 | 0.00 | 0.00 | 0.00 | 85 | 1013.9 |
| 20260906034048 | 77 | 150 | 0.0 | 0.0 | 0.00 | 0.00 | 0.00 | 84 | 1013.8 |
| 20260906033544 | 77 | 128 | 0.0 | 1.0 | 0.00 | 0.00 | 0.00 | 84 | 1013.9 |
| 20260906033039 | 78 | 143 | 0.0 | 0.0 | 0.00 | 0.00 | 0.00 | 84 | 1013.9 |
| 20260906032536 | 78 | 148 | 0.0 | 1.0 | 0.00 | 0.00 | 0.00 | 84 | 1013.9 |
| 20260906032030 | 78 | 139 | 1.0 | 2.0 | 0.00 | 0.00 | 0.00 | 83 | 1014.1 |
| 20260906031526 | 78 | 140 | 1.0 | 1.0 | 0.00 | 0.00 | 0.00 | 83 | 1013.8 |
| 20260906031021 | 78 | 148 | 1.0 | 1.0 | 0.00 | 0.00 | 0.00 | 82 | 1014.0 |
| 20260906030520 | 78 | 148 | 1.0 | 1.0 | 0.00 | 0.00 | 0.00 | 81 | 1014.0 |
| 20260906030020 | 78 | 128 | 1.0 | 1.0 | 0.00 | 0.00 | 0.00 | 81 | 1013.8 |
| 20260906025520 | 79 | 130 | 1.0 | 1.0 | 0.00 | 0.00 | 0.00 | 80 | 1013.9 |
| 20260906025018 | 79 | 114 | 2.0 | 2.0 | 0.00 | 0.00 | 0.00 | 80 | 1013.9 |
| 20260906024514 | 79 | 135 | 1.0 | 1.0 | 0.00 | 0.00 | 0.00 | 79 | 1013.8 |
| 20260906024014 | 80 | 111 | 2.0 | 3.0 | 0.00 | 0.00 | 0.00 | 78 | 1013.8 |
| 20260906023510 | 80 | 158 | 1.0 | 1.0 | 0.00 | 0.00 | 0.00 | 78 | 1013.9 |
| 20260906023004 | 80 | 166 | 1.0 | 1.0 | 0.00 | 0.00 | 0.00 | 76 | 1013.8 |
| 20260906022500 | 80 | 158 | 0.0 | 0.0 | 0.00 | 0.00 | 0.00 | 75 | 1013.5 |
| 20260906021955 | 81 | 114 | 2.0 | 2.0 | 0.00 | 0.00 | 0.00 | 74 | 1013.5 |
| 20260906021450 | 81 | 169 | 1.0 | 1.0 | 0.00 | 0.00 | 0.00 | 74 | 1013.4 |
| 20260906020944 | 81 | 162 | 0.0 | 1.0 | 0.00 | 0.00 | 0.00 | 73 | 1013.2 |
| 20260906020439 | 81 | 161 | 0.0 | 1.0 | 0.00 | 0.00 | 0.00 | 74 | 1013.1 |
| 20260906015939 | 81 | 144 | 0.0 | 0.0 | 0.00 | 0.00 | 0.00 | 74 | 1013.1 |
| 20260906015438 | 81 | 163 | 2.0 | 3.0 | 0.00 | 0.00 | 0.00 | 74 | 1013.0 |
| 20260906014938 | 81 | 142 | 0.0 | 1.0 | 0.00 | 0.00 | 0.00 | 74 | 1013.1 |
| 20260906014438 | 82 | 142 | 0.0 | 0.0 | 0.00 | 0.00 | 0.00 | 73 | 1013.0 |
| 20260906013934 | 82 | 142 | 0.0 | 0.0 | 0.00 | 0.00 | 0.00 | 73 | 1012.8 |
| 20260906013429 | 82 | 139 | 1.0 | 1.0 | 0.00 | 0.00 | 0.00 | 73 | 1012.8 |
| 20260906012925 | 82 | 136 | 2.0 | 2.0 | 0.00 | 0.00 | 0.00 | 73 | 1012.6 |
| 20260906012425 | 82 | 142 | 0.0 | 0.0 | 0.00 | 0.00 | 0.00 | 72 | 1012.6 |
| 20260906011924 | 82 | 141 | 2.0 | 2.0 | 0.00 | 0.00 | 0.00 | 72 | 1012.6 |
| 20260906011419 | 82 | 143 | 1.0 | 1.0 | 0.00 | 0.00 | 0.00 | 72 | 1012.6 |
| 20260906010915 | 83 | 93 | 0.0 | 1.0 | 0.00 | 0.00 | 0.00 | 72 | 1012.3 |
| 20260906010410 | 83 | 163 | 0.0 | 0.0 | 0.00 | 0.00 | 0.00 | 71 | 1012.3 |
| 20260906005906 | 83 | 100 | 1.0 | 2.0 | 0.00 | 0.00 | 0.00 | 71 | 1012.3 |
| 20260906005406 | 84 | 148 | 0.0 | 1.0 | 0.00 | 0.00 | 0.00 | 70 | 1012.3 |
| 20260906004904 | 84 | 139 | 1.0 | 1.0 | 0.00 | 0.00 | 0.00 | 69 | 1012.2 |
| 20260906004359 | 84 | 102 | 1.0 | 2.0 | 0.00 | 0.00 | 0.00 | 69 | 1012.1 |
| 20260906003854 | 84 | 148 | 0.0 | 0.0 | 0.00 | 0.00 | 0.00 | 69 | 1012.0 |
| 20260906003350 | 84 | 148 | 0.0 | 0.0 | 0.00 | 0.00 | 0.00 | 69 | 1012.0 |
| 20260906002845 | 84 | 157 | 0.0 | 1.0 | 0.00 | 0.00 | 0.00 | 70 | 1011.9 |
| 20260906002344 | 84 | 156 | 1.0 | 2.0 | 0.00 | 0.00 | 0.00 | 71 | 1011.9 |
| 20260906001840 | 85 | 145 | 0.0 | 0.0 | 0.00 | 0.00 | 0.00 | 71 | 1011.8 |
| 20260906001335 | 85 | 152 | 0.0 | 0.0 | 0.00 | 0.00 | 0.00 | 71 | 1011.6 |
| 20260906000830 | 85 | 165 | 0.0 | 0.0 | 0.00 | 0.00 | 0.00 | 70 | 1012.0 |
| 20260906000326 | 86 | 159 | 0.0 | 0.0 | 0.00 | 0.00 | 0.00 | 70 | 1011.9 |
| 20260905235820 | 86 | 149 | 0.0 | 0.0 | 0.00 | 0.00 | 0.00 | 70 | 1011.9 |
| 20260905235320 | 86 | 156 | 0.0 | 0.0 | 0.00 | 0.00 | 0.00 | 72 | 1012.0 |
| 20260905234815 | 86 | 139 | 1.0 | 1.0 | 0.00 | 0.00 | 0.00 | 72 | 1011.9 |
| 20260905234310 | 86 | 158 | 0.0 | 0.0 | 0.00 | 0.00 | 0.00 | 71 | 1011.7 |
| 20260905233805 | 87 | 123 | 1.0 | 1.0 | 0.00 | 0.00 | 0.00 | 71 | 1011.9 |
| 20260905233306 | 87 | 175 | 1.0 | 1.0 | 0.00 | 0.00 | 0.00 | 71 | 1011.8 |
| 20260905232805 | 87 | 155 | 0.0 | 1.0 | 0.00 | 0.00 | 0.00 | 70 | 1012.0 |
| 20260905232301 | 87 | 152 | 0.0 | 0.0 | 0.00 | 0.00 | 0.00 | 70 | 1012.1 |
| 20260905231756 | 87 | 145 | 0.0 | 1.0 | 0.00 | 0.00 | 0.00 | 70 | 1012.1 |
| 20260905231252 | 87 | 170 | 0.0 | 0.0 | 0.00 | 0.00 | 0.00 | 70 | 1012.0 |
| 20260905230748 | 87 | 157 | 0.0 | 0.0 | 0.00 | 0.00 | 0.00 | 70 | 1011.9 |
| 20260905230245 | 87 | 140 | 0.0 | 0.0 | 0.00 | 0.00 | 0.00 | 70 | 1012.0 |
| 20260905225745 | 88 | 140 | 0.0 | 1.0 | 0.00 | 0.00 | 0.00 | 69 | 1012.0 |
| 20260905225241 | 88 | 342 | 2.0 | 4.0 | 0.00 | 0.00 | 0.00 | 69 | 1011.9 |
| 20260905224739 | 89 | 115 | 2.0 | 2.0 | 0.00 | 0.00 | 0.00 | 67 | 1011.9 |
| 20260905224236 | 89 | 288 | 2.0 | 3.0 | 0.00 | 0.00 | 0.00 | 66 | 1011.8 |
| 20260905223731 | 89 | 150 | 0.0 | 0.0 | 0.00 | 0.00 | 0.00 | 66 | 1011.6 |
| 20260905223228 | 88 | 86 | 2.0 | 3.0 | 0.00 | 0.00 | 0.00 | 65 | 1011.6 |
| 20260905222724 | 88 | 121 | 1.0 | 1.0 | 0.00 | 0.00 | 0.00 | 65 | 1011.5 |
| 20260905222222 | 88 | 162 | 2.0 | 2.0 | 0.00 | 0.00 | 0.00 | 66 | 1011.7 |
| 20260905221719 | 88 | 160 | 0.0 | 0.0 | 0.00 | 0.00 | 0.00 | 66 | 1011.8 |
| 20260905221215 | 88 | 92 | 1.0 | 1.0 | 0.00 | 0.00 | 0.00 | 65 | 1011.8 |
| 20260905220711 | 89 | 161 | 0.0 | 1.0 | 0.00 | 0.00 | 0.00 | 65 | 1011.7 |
| 20260905220207 | 89 | 157 | 0.0 | 0.0 | 0.00 | 0.00 | 0.00 | 65 | 1011.1 |
| 20260905215706 | 89 | 165 | 0.0 | 0.0 | 0.00 | 0.00 | 0.00 | 65 | 1011.2 |
| 20260905215202 | 89 | 165 | 0.0 | 0.0 | 0.00 | 0.00 | 0.00 | 64 | 1011.1 |
| 20260905214658 | 89 | 161 | 0.0 | 0.0 | 0.00 | 0.00 | 0.00 | 63 | 1011.6 |
| 20260905214153 | 89 | 168 | 0.0 | 0.0 | 0.00 | 0.00 | 0.00 | 63 | 1011.6 |
| 20260905213648 | 90 | 160 | 0.0 | 0.0 | 0.00 | 0.00 | 0.00 | 61 | 1011.4 |
| 20260905213143 | 90 | 168 | 0.0 | 0.0 | 0.00 | 0.00 | 0.00 | 61 | 1011.8 |
| 20260905212639 | 90 | 159 | 1.0 | 1.0 | 0.00 | 0.00 | 0.00 | 62 | 1011.5 |
| 20260905212138 | 91 | 162 | 0.0 | 0.0 | 0.00 | 0.00 | 0.00 | 60 | 1011.7 |
| 20260905211632 | 91 | 155 | 0.0 | 0.0 | 0.00 | 0.00 | 0.00 | 59 | 1011.6 |
| 20260905211128 | 92 | 163 | 0.0 | 0.0 | 0.00 | 0.00 | 0.00 | 57 | 1011.6 |
| 20260905210625 | 93 | 162 | 0.0 | 0.0 | 0.00 | 0.00 | 0.00 | 58 | 1011.8 |
| 20260905210119 | 93 | 162 | 0.0 | 0.0 | 0.00 | 0.00 | 0.00 | 57 | 1011.7 |
| 20260905205618 | 93 | 164 | 0.0 | 0.0 | 0.00 | 0.00 | 0.00 | 56 | 1012.1 |
| 20260905205118 | 93 | 165 | 0.0 | 0.0 | 0.00 | 0.00 | 0.00 | 56 | 1011.9 |
| 20260905204618 | 94 | 185 | 1.0 | 1.0 | 0.00 | 0.00 | 0.00 | 54 | 1012.0 |
| 20260905204113 | 94 | 173 | 0.0 | 0.0 | 0.00 | 0.00 | 0.00 | 53 | 1011.8 |
| 20260905203613 | 93 | 169 | 1.0 | 1.0 | 0.00 | 0.00 | 0.00 | 56 | 1012.1 |
| 20260905203108 | 93 | 160 | 0.0 | 0.0 | 0.00 | 0.00 | 0.00 | 53 | 1012.4 |
| 20260905202604 | 95 | 173 | 1.0 | 1.0 | 0.00 | 0.00 | 0.00 | 51 | 1012.1 |
| 20260905202059 | 95 | 167 | 0.0 | 0.0 | 0.00 | 0.00 | 0.00 | 51 | 1012.1 |
| 20260905201555 | 94 | 153 | 1.0 | 1.0 | 0.00 | 0.00 | 0.00 | 54 | 1012.3 |
| 20260905201055 | 93 | 182 | 2.0 | 3.0 | 0.00 | 0.00 | 0.00 | 55 | 1012.4 |
| 20260905200550 | 94 | 167 | 0.0 | 0.0 | 0.00 | 0.00 | 0.00 | 55 | 1012.5 |
| 20260905200050 | 94 | 182 | 1.0 | 2.0 | 0.00 | 0.00 | 0.00 | 51 | 1012.2 |
| 20260905195544 | 94 | 186 | 2.0 | 4.0 | 0.00 | 0.00 | 0.00 | 52 | 1012.4 |
| 20260905195039 | 94 | 114 | 1.0 | 1.0 | 0.00 | 0.00 | 0.00 | 51 | 1012.5 |
| 20260905194539 | 94 | 203 | 2.0 | 3.0 | 0.00 | 0.00 | 0.00 | 54 | 1012.5 |
| 20260905194033 | 95 | 187 | 2.0 | 2.0 | 0.00 | 0.00 | 0.00 | 51 | 1012.5 |
| 20260905193528 | 95 | 166 | 0.0 | 1.0 | 0.00 | 0.00 | 0.00 | 50 | 1012.5 |
| 20260905193023 | 95 | 189 | 1.0 | 1.0 | 0.00 | 0.00 | 0.00 | 50 | 1012.7 |
| 20260905192518 | 95 | 160 | 0.0 | 1.0 | 0.00 | 0.00 | 0.00 | 49 | 1012.8 |
| 20260905192015 | 95 | 164 | 0.0 | 0.0 | 0.00 | 0.00 | 0.00 | 50 | 1012.7 |
| 20260905191513 | 95 | 166 | 0.0 | 0.0 | 0.00 | 0.00 | 0.00 | 50 | 1013.0 |
| 20260905191012 | 93 | 166 | 0.0 | 0.0 | 0.00 | 0.00 | 0.00 | 51 | 1013.0 |
| 20260905190510 | 94 | 56 | 2.0 | 4.0 | 0.00 | 0.00 | 0.00 | 51 | 1013.1 |
| 20260905190004 | 94 | 156 | 2.0 | 2.0 | 0.00 | 0.00 | 0.00 | 51 | 1013.1 |
| 20260905185459 | 94 | 100 | 1.0 | 2.0 | 0.00 | 0.00 | 0.00 | 52 | 1013.2 |
| 20260905184957 | 94 | 170 | 1.0 | 2.0 | 0.00 | 0.00 | 0.00 | 51 | 1013.2 |
| 20260905184453 | 93 | 171 | 0.0 | 1.0 | 0.00 | 0.00 | 0.00 | 52 | 1013.2 |
| 20260905183951 | 94 | 165 | 0.0 | 0.0 | 0.00 | 0.00 | 0.00 | 50 | 1013.3 |
| 20260905183450 | 94 | 154 | 1.0 | 2.0 | 0.00 | 0.00 | 0.00 | 51 | 1013.5 |
| 20260905182945 | 93 | 157 | 0.0 | 0.0 | 0.00 | 0.00 | 0.00 | 51 | 1013.3 |
| 20260905182445 | 92 | 164 | 1.0 | 1.0 | 0.00 | 0.00 | 0.00 | 52 | 1013.4 |
| 20260905181940 | 92 | 181 | 1.0 | 2.0 | 0.00 | 0.00 | 0.00 | 54 | 1013.5 |
| 20260905181435 | 92 | 279 | 5.0 | 6.0 | 0.00 | 0.00 | 0.00 | 51 | 1013.7 |
| 20260905180934 | 92 | 176 | 3.0 | 3.0 | 0.00 | 0.00 | 0.00 | 52 | 1013.7 |
| 20260905180429 | 93 | 152 | 1.0 | 2.0 | 0.00 | 0.00 | 0.00 | 51 | 1013.8 |
| 20260905175925 | 93 | 176 | 0.0 | 1.0 | 0.00 | 0.00 | 0.00 | 50 | 1013.9 |
| 20260905175424 | 92 | 190 | 1.0 | 1.0 | 0.00 | 0.00 | 0.00 | 50 | 1013.8 |
| 20260905174919 | 91 | 164 | 1.0 | 2.0 | 0.00 | 0.00 | 0.00 | 53 | 1013.8 |
| 20260905174415 | 92 | 280 | 4.0 | 4.0 | 0.00 | 0.00 | 0.00 | 50 | 1014.1 |
| 20260905173910 | 92 | 191 | 1.0 | 3.0 | 0.00 | 0.00 | 0.00 | 53 | 1013.9 |
| 20260905173407 | 91 | 163 | 0.0 | 1.0 | 0.00 | 0.00 | 0.00 | 51 | 1013.8 |
| 20260905172906 | 91 | 165 | 1.0 | 3.0 | 0.00 | 0.00 | 0.00 | 53 | 1014.2 |
| 20260905172404 | 91 | 160 | 0.0 | 0.0 | 0.00 | 0.00 | 0.00 | 54 | 1014.2 |
| 20260905171900 | 91 | 166 | 1.0 | 2.0 | 0.00 | 0.00 | 0.00 | 51 | 1014.2 |
| 20260905171357 | 90 | 175 | 4.0 | 4.0 | 0.00 | 0.00 | 0.00 | 51 | 1014.3 |
| 20260905170853 | 91 | 163 | 0.0 | 1.0 | 0.00 | 0.00 | 0.00 | 51 | 1014.3 |
| 20260905170349 | 90 | 175 | 2.0 | 3.0 | 0.00 | 0.00 | 0.00 | 53 | 1014.5 |
| 20260905165848 | 90 | 171 | 2.0 | 2.0 | 0.00 | 0.00 | 0.00 | 51 | 1014.6 |
| 20260905165343 | 89 | 156 | 0.0 | 1.0 | 0.00 | 0.00 | 0.00 | 52 | 1014.5 |
| 20260905164838 | 90 | 173 | 1.0 | 2.0 | 0.00 | 0.00 | 0.00 | 53 | 1014.8 |
| 20260905164333 | 89 | 164 | 0.0 | 0.0 | 0.00 | 0.00 | 0.00 | 54 | 1014.7 |
| 20260905163828 | 89 | 165 | 0.0 | 1.0 | 0.00 | 0.00 | 0.00 | 52 | 1014.8 |
| 20260905163325 | 90 | 166 | 1.0 | 2.0 | 0.00 | 0.00 | 0.00 | 53 | 1014.8 |
| 20260905162820 | 90 | 151 | 0.0 | 0.0 | 0.00 | 0.00 | 0.00 | 52 | 1014.9 |
| 20260905162315 | 89 | 169 | 0.0 | 0.0 | 0.00 | 0.00 | 0.00 | 53 | 1014.8 |
| 20260905161815 | 90 | 163 | 0.0 | 1.0 | 0.00 | 0.00 | 0.00 | 51 | 1014.7 |
| 20260905161314 | 89 | 163 | 0.0 | 0.0 | 0.00 | 0.00 | 0.00 | 53 | 1015.0 |
| 20260905160812 | 88 | 161 | 1.0 | 3.0 | 0.00 | 0.00 | 0.00 | 54 | 1014.8 |
| 20260905160308 | 87 | 164 | 0.0 | 1.0 | 0.00 | 0.00 | 0.00 | 58 | 1014.9 |
| 20260905155802 | 86 | 159 | 0.0 | 0.0 | 0.00 | 0.00 | 0.00 | 56 | 1014.8 |
| 20260905155305 | 86 | 165 | 2.0 | 3.0 | 0.00 | 0.00 | 0.00 | 56 | 1014.6 |
| 20260905154801 | 85 | 166 | 2.0 | 3.0 | 0.00 | 0.00 | 0.00 | 57 | 1014.7 |
| 20260905154257 | 85 | 176 | 4.0 | 6.0 | 0.00 | 0.00 | 0.00 | 55 | 1014.9 |
| 20260905153752 | 86 | 167 | 2.0 | 4.0 | 0.00 | 0.00 | 0.00 | 56 | 1014.9 |
| 20260905153248 | 86 | 145 | 2.0 | 3.0 | 0.00 | 0.00 | 0.00 | 57 | 1014.9 |
| 20260905152743 | 85 | 173 | 1.0 | 1.0 | 0.00 | 0.00 | 0.00 | 57 | 1015.0 |
| 20260905152242 | 85 | 163 | 1.0 | 2.0 | 0.00 | 0.00 | 0.00 | 58 | 1015.0 |
| 20260905151742 | 85 | 159 | 2.0 | 2.0 | 0.00 | 0.00 | 0.00 | 58 | 1015.1 |
| 20260905151238 | 84 | 146 | 1.0 | 2.0 | 0.00 | 0.00 | 0.00 | 57 | 1015.2 |
| 20260905150738 | 84 | 143 | 2.0 | 2.0 | 0.00 | 0.00 | 0.00 | 58 | 1015.2 |
| 20260905150237 | 84 | 151 | 1.0 | 1.0 | 0.00 | 0.00 | 0.00 | 59 | 1015.2 |
| 20260905145735 | 82 | 165 | 3.0 | 6.0 | 0.00 | 0.00 | 0.00 | 59 | 1015.1 |
| 20260905145230 | 83 | 175 | 4.0 | 8.0 | 0.00 | 0.00 | 0.00 | 59 | 1015.0 |
| 20260905144729 | 84 | 164 | 2.0 | 2.0 | 0.00 | 0.00 | 0.00 | 59 | 1015.3 |
| 20260905144224 | 83 | 169 | 2.0 | 2.0 | 0.00 | 0.00 | 0.00 | 61 | 1015.3 |
| 20260905143723 | 83 | 170 | 4.0 | 4.0 | 0.00 | 0.00 | 0.00 | 58 | 1015.1 |
| 20260905143223 | 83 | 154 | 1.0 | 1.0 | 0.00 | 0.00 | 0.00 | 60 | 1015.4 |
| 20260905142721 | 82 | 183 | 3.0 | 4.0 | 0.00 | 0.00 | 0.00 | 60 | 1015.4 |
| 20260905142216 | 82 | 157 | 2.0 | 2.0 | 0.00 | 0.00 | 0.00 | 61 | 1015.4 |
| 20260905141712 | 81 | 188 | 1.0 | 2.0 | 0.00 | 0.00 | 0.00 | 63 | 1015.3 |
| 20260905141208 | 81 | 139 | 4.0 | 6.0 | 0.00 | 0.00 | 0.00 | 63 | 1015.4 |
| 20260905140703 | 81 | 142 | 0.0 | 0.0 | 0.00 | 0.00 | 0.00 | 63 | 1015.5 |
| 20260905140203 | 80 | 179 | 1.0 | 2.0 | 0.00 | 0.00 | 0.00 | 63 | 1015.3 |
| 20260905135657 | 79 | 179 | 3.0 | 6.0 | 0.00 | 0.00 | 0.00 | 64 | 1015.3 |
| 20260905135154 | 80 | 133 | 4.0 | 6.0 | 0.00 | 0.00 | 0.00 | 64 | 1015.4 |
| 20260905134653 | 80 | 172 | 2.0 | 3.0 | 0.00 | 0.00 | 0.00 | 64 | 1015.5 |
| 20260905134152 | 79 | 181 | 4.0 | 6.0 | 0.00 | 0.00 | 0.00 | 66 | 1015.6 |
| 20260905133647 | 78 | 192 | 2.0 | 3.0 | 0.00 | 0.00 | 0.00 | 68 | 1015.4 |
| 20260905133141 | 78 | 159 | 3.0 | 4.0 | 0.00 | 0.00 | 0.00 | 68 | 1015.2 |
| 20260905132641 | 78 | 140 | 3.0 | 3.0 | 0.00 | 0.00 | 0.00 | 67 | 1015.3 |
| 20260905132136 | 77 | 153 | 1.0 | 2.0 | 0.00 | 0.00 | 0.00 | 70 | 1015.2 |
| 20260905131631 | 77 | 144 | 4.0 | 6.0 | 0.00 | 0.00 | 0.00 | 70 | 1015.2 |
| 20260905131126 | 77 | 94 | 1.0 | 2.0 | 0.00 | 0.00 | 0.00 | 71 | 1015.3 |
| 20260905130621 | 77 | 158 | 0.0 | 1.0 | 0.00 | 0.00 | 0.00 | 71 | 1015.6 |
| 20260905130121 | 77 | 163 | 2.0 | 3.0 | 0.00 | 0.00 | 0.00 | 71 | 1015.7 |
| 20260905125621 | 76 | 173 | 1.0 | 2.0 | 0.00 | 0.00 | 0.00 | 73 | 1015.7 |
| 20260905125117 | 75 | 186 | 3.0 | 4.0 | 0.00 | 0.00 | 0.00 | 73 | 1015.7 |
| 20260905124613 | 76 | 164 | 2.0 | 2.0 | 0.00 | 0.00 | 0.00 | 74 | 1015.5 |
| 20260905124109 | 75 | 151 | 0.0 | 1.0 | 0.00 | 0.00 | 0.00 | 75 | 1015.6 |
| 20260905123604 | 74 | 163 | 0.0 | 0.0 | 0.00 | 0.00 | 0.00 | 77 | 1015.6 |
| 20260905123101 | 74 | 205 | 1.0 | 2.0 | 0.00 | 0.00 | 0.00 | 78 | 1015.7 |
| 20260905122601 | 74 | 175 | 1.0 | 2.0 | 0.00 | 0.00 | 0.00 | 79 | 1015.6 |
| 20260905122101 | 74 | 101 | 2.0 | 2.0 | 0.00 | 0.00 | 0.00 | 79 | 1015.5 |
| 20260905121555 | 74 | 300 | 1.0 | 1.0 | 0.00 | 0.00 | 0.00 | 79 | 1015.7 |
| 20260905121051 | 73 | 190 | 3.0 | 3.0 | 0.00 | 0.00 | 0.00 | 79 | 1015.5 |
| 20260905120549 | 73 | 161 | 0.0 | 1.0 | 0.00 | 0.00 | 0.00 | 79 | 1015.5 |
| 20260905120045 | 73 | 192 | 1.0 | 2.0 | 0.00 | 0.00 | 0.00 | 80 | 1015.5 |
| 20260905115544 | 73 | 140 | 3.0 | 6.0 | 0.00 | 0.00 | 0.00 | 80 | 1015.7 |
| 20260905115039 | 73 | 158 | 0.0 | 1.0 | 0.00 | 0.00 | 0.00 | 81 | 1015.4 |
| 20260905114538 | 73 | 149 | 0.0 | 1.0 | 0.00 | 0.00 | 0.00 | 81 | 1015.2 |
| 20260905114037 | 73 | 69 | 3.0 | 4.0 | 0.00 | 0.00 | 0.00 | 80 | 1015.1 |
| 20260905113532 | 74 | 176 | 3.0 | 6.0 | 0.00 | 0.00 | 0.00 | 81 | 1015.0 |
| 20260905113028 | 74 | 234 | 1.0 | 2.0 | 0.00 | 0.00 | 0.00 | 81 | 1015.1 |
| 20260905112523 | 75 | 164 | 2.0 | 3.0 | 0.00 | 0.00 | 0.00 | 82 | 1014.9 |
| 20260905112018 | 75 | 77 | 2.0 | 2.0 | 0.00 | 0.00 | 0.00 | 86 | 1014.9 |
| 20260905111513 | 76 | 160 | 1.0 | 2.0 | 0.00 | 0.00 | 0.00 | 88 | 1014.6 |
| 20260905111012 | 76 | 152 | 2.0 | 4.0 | 0.00 | 0.00 | 0.00 | 94 | 1014.7 |
| 20260905110512 | 75 | 90 | 4.0 | 6.0 | 0.00 | 0.00 | 0.00 | 97 | 1014.6 |
| 20260905110007 | 75 | 160 | 0.0 | 0.0 | 0.00 | 0.00 | 0.00 | 97 | 1013.9 |
| 20260905105501 | 75 | 160 | 0.0 | 0.0 | 0.00 | 0.00 | 0.00 | 97 | 1014.0 |
| 20260905105000 | 75 | 164 | 0.0 | 0.0 | 0.00 | 0.00 | 0.00 | 97 | 1013.8 |
| 20260905104457 | 75 | 164 | 0.0 | 0.0 | 0.00 | 0.00 | 0.00 | 97 | 1013.8 |
| 20260905103956 | 75 | 165 | 0.0 | 0.0 | 0.00 | 0.00 | 0.00 | 97 | 1013.7 |
| 20260905103452 | 75 | 160 | 0.0 | 0.0 | 0.00 | 0.00 | 0.00 | 96 | 1013.8 |
| 20260905102948 | 75 | 160 | 0.0 | 0.0 | 0.00 | 0.00 | 0.00 | 96 | 1013.8 |
| 20260905102444 | 75 | 159 | 0.0 | 0.0 | 0.00 | 0.00 | 0.00 | 96 | 1013.8 |
| 20260905101939 | 75 | 157 | 0.0 | 0.0 | 0.00 | 0.00 | 0.00 | 96 | 1013.8 |
| 20260905101438 | 75 | 163 | 0.0 | 0.0 | 0.00 | 0.00 | 0.00 | 96 | 1013.8 |
| 20260905100937 | 75 | 163 | 0.0 | 0.0 | 0.00 | 0.00 | 0.00 | 96 | 1013.5 |
| 20260905100433 | 75 | 163 | 0.0 | 0.0 | 0.00 | 0.00 | 0.00 | 96 | 1013.5 |
| 20260905095932 | 75 | 163 | 0.0 | 0.0 | 0.00 | 0.00 | 0.00 | 96 | 1013.7 |
| 20260905095433 | 75 | 163 | 0.0 | 0.0 | 0.00 | 0.00 | 0.00 | 96 | 1013.4 |
| 20260905094932 | 75 | 163 | 0.0 | 0.0 | 0.00 | 0.00 | 0.00 | 95 | 1013.7 |
| 20260905094429 | 75 | 163 | 0.0 | 0.0 | 0.00 | 0.00 | 0.00 | 95 | 1013.7 |
| 20260905093927 | 75 | 163 | 0.0 | 0.0 | 0.00 | 0.00 | 0.00 | 95 | 1013.5 |
| 20260905093423 | 75 | 161 | 0.0 | 0.0 | 0.00 | 0.00 | 0.00 | 95 | 1013.3 |
| 20260905092918 | 76 | 163 | 0.0 | 0.0 | 0.00 | 0.00 | 0.00 | 95 | 1013.4 |
| 20260905092413 | 76 | 166 | 0.0 | 0.0 | 0.00 | 0.00 | 0.00 | 95 | 1013.4 |
| 20260905091909 | 76 | 166 | 0.0 | 0.0 | 0.00 | 0.00 | 0.00 | 95 | 1013.7 |
| 20260905091409 | 76 | 166 | 0.0 | 0.0 | 0.00 | 0.00 | 0.00 | 96 | 1013.4 |
| 20260905090908 | 76 | 165 | 0.0 | 0.0 | 0.00 | 0.00 | 0.00 | 96 | 1013.7 |
| 20260905090404 | 75 | 168 | 0.0 | 0.0 | 0.00 | 0.00 | 0.00 | 96 | 1013.9 |
| 20260905085903 | 75 | 158 | 0.0 | 0.0 | 0.00 | 0.00 | 0.00 | 96 | 1013.8 |
| 20260905085402 | 75 | 158 | 0.0 | 0.0 | 0.00 | 0.00 | 0.00 | 96 | 1013.8 |
| 20260905084859 | 75 | 158 | 0.0 | 0.0 | 0.00 | 0.00 | 0.00 | 96 | 1013.5 |
| 20260905084358 | 75 | 158 | 0.0 | 0.0 | 0.00 | 0.00 | 0.00 | 96 | 1013.4 |
| 20260905083853 | 75 | 158 | 0.0 | 0.0 | 0.00 | 0.00 | 0.00 | 96 | 1013.4 |
| 20260905083348 | 75 | 157 | 0.0 | 0.0 | 0.00 | 0.00 | 0.00 | 96 | 1013.5 |
| 20260905082843 | 75 | 163 | 0.0 | 0.0 | 0.00 | 0.00 | 0.00 | 96 | 1013.1 |
| 20260905082340 | 75 | 163 | 0.0 | 0.0 | 0.00 | 0.00 | 0.00 | 96 | 1013.0 |
| 20260905081835 | 75 | 163 | 0.0 | 0.0 | 0.00 | 0.00 | 0.00 | 96 | 1013.1 |
| 20260905081329 | 75 | 163 | 0.0 | 0.0 | 0.00 | 0.00 | 0.00 | 96 | 1012.9 |
| 20260905080828 | 75 | 163 | 0.0 | 0.0 | 0.00 | 0.00 | 0.00 | 96 | 1012.9 |
| 20260905080323 | 75 | 163 | 0.0 | 0.0 | 0.00 | 0.00 | 0.00 | 96 | 1012.8 |
| 20260905075822 | 75 | 163 | 0.0 | 0.0 | 0.00 | 0.00 | 0.00 | 95 | 1012.9 |
| 20260905075322 | 75 | 163 | 0.0 | 0.0 | 0.00 | 0.00 | 0.00 | 95 | 1012.9 |
| 20260905074821 | 75 | 163 | 0.0 | 0.0 | 0.00 | 0.00 | 0.00 | 95 | 1012.8 |
| 20260905074317 | 75 | 163 | 0.0 | 0.0 | 0.00 | 0.00 | 0.00 | 95 | 1012.9 |
| 20260905073812 | 75 | 164 | 0.0 | 0.0 | 0.00 | 0.00 | 0.00 | 95 | 1012.6 |
| 20260905073307 | 75 | 164 | 0.0 | 0.0 | 0.00 | 0.00 | 0.00 | 95 | 1012.9 |
| 20260905072802 | 76 | 164 | 0.0 | 0.0 | 0.00 | 0.00 | 0.00 | 95 | 1012.7 |
| 20260905072257 | 76 | 164 | 0.0 | 0.0 | 0.00 | 0.00 | 0.00 | 95 | 1012.7 |
| 20260905071754 | 76 | 164 | 0.0 | 0.0 | 0.00 | 0.00 | 0.00 | 94 | 1012.7 |
| 20260905071249 | 76 | 164 | 0.0 | 0.0 | 0.00 | 0.00 | 0.00 | 94 | 1012.8 |
| 20260905070744 | 76 | 164 | 0.0 | 0.0 | 0.00 | 0.00 | 0.00 | 94 | 1013.0 |
| 20260905070241 | 76 | 164 | 0.0 | 0.0 | 0.00 | 0.00 | 0.00 | 94 | 1013.0 |
| 20260905065739 | 76 | 164 | 0.0 | 0.0 | 0.00 | 0.00 | 0.00 | 94 | 1013.0 |